User: anonymous   Login
Location: *
(47.6569°N, 7.4256°E)
Time: 14:19:40
(UTC+00:00)
Language:

Gbstr 26 Del rocket - Orbit

View from above orbital plane
View from above orbital plane
View from above satellite
View from above satellite

Ground track
Ground track

The orbit data is extracted from the following two-line orbital elements,

1 25876U 99041E   20056.35926844  .00000047  00000-0  49405-4 0  9992
2 25876  51.7654  36.8019 0531372  14.3330 347.2031 14.04395573 52750
Epoch (UTC): 25 February 2020 08:37:20
Eccentricity: 0.0531372
inclination: 51.7654°
perigee height: 493 km
apogee height: 1264 km
right ascension of ascending node: 36.8019°
argument of perigee: 14.3330°
revolutions per day: 14.04395573
mean anomaly at epoch: 347.2031°
orbit number at epoch: 5275

The dashed part of the orbit path shows where the satellite is in the earth's shadow,  

DLR